This demonstration page uses our WeatherBlox Daily Observations layout. Learn more.

Left ArrowRight Arrow

Hourly Observations for May 17, 2021

Temp ( °F °C ) Dew Point ( °F °C ) Humidity (%) Winds ( mph kmh ) Pressure ( in mb ) Visibility ( mi km ) Precip ( " mm )
12:53 am 00:53 Clear 56 13.3 52 11.1 87 87 E 3 6 30.19 1023 10 16 N/A
1:53 am 01:53 Clear 58 14.4 52 11.1 81 81 N N/A 30.18 1022 10 16 N/A
2:53 am 02:53 Clear 57 13.9 52 11.1 83 83 E 3 6 30.16 1021 10 16 N/A
3:53 am 03:53 Clear 56 13.3 52 11.1 87 87 N N/A 30.16 1021 10 16 N/A
4:53 am 04:53 Clear 57 13.9 53 11.7 87 87 E 5 7 30.16 1021 10 16 N/A
5:53 am 05:53 Cloudy with Light Rain 58 14.4 53 11.7 84 84 N N/A 30.17 1022 10 16 0.00 0.00
6:53 am 06:53 Cloudy with Rain 57 13.9 55 12.8 93 93 N N/A 30.22 1023 3 4 0.09 2.29
7:05 am 07:05 Cloudy with Light Rain 57 13.9 55 12.8 93 93 N N/A 30.22 1023 3 5 0.03 0.76
7:13 am 07:13 Cloudy with Rain 57 13.9 56 13.3 96 96 N N/A 30.23 1024 2 3 0.05 1.27
7:53 am 07:53 Cloudy with Light Rain 57 13.9 56 13.3 96 96 ENE 6 9 30.23 1024 3 5 0.12 3.05
8:18 am 08:18 Cloudy with Rain 57 13.9 56 13.3 96 96 NNE 3 6 30.25 1024 2 3 0.06 1.52
8:40 am 08:40 Cloudy with Light Rain 57 13.9 55 12.8 93 93 ENE 10 17 30.24 1024 3 5 0.12 3.05
8:53 am 08:53 Cloudy with Light Rain 57 13.9 56 13.3 96 96 E 9 15 30.23 1024 6 10 0.13 3.30
9:53 am 09:53 Cloudy with Light Rain 58 14.4 56 13.3 93 93 ESE 5 7 30.25 1024 4 6 0.05 1.27
10:53 am 10:53 Cloudy with Rain 58 14.4 56 13.3 93 93 ESE 8 13 30.25 1025 4 6 0.10 2.54
11:05 am 11:05 Cloudy with Rain 58 14.4 56 13.3 93 93 ESE 6 9 30.26 1025 3 4 0.03 0.76
11:13 am 11:13 Cloudy with Rain 58 14.4 56 13.3 93 93 ESE 6 9 30.26 1025 3 5 0.05 1.27
11:53 am 11:53 Cloudy with Rain 58 14.4 56 13.3 93 93 VRB 3 6 30.26 1025 3 4 0.13 3.30
12:13 pm 12:13 Cloudy with Rain 58 14.4 56 13.3 93 93 ESE 8 13 30.24 1024 3 5 0.06 1.52
12:42 pm 12:42 Cloudy with Light Rain 58 14.4 57 13.9 97 97 VRB 7 11 30.24 1024 4 6 0.10 2.54
12:53 pm 12:53 Cloudy with Light Rain 58 14.4 56 13.3 93 93 ESE 7 11 30.24 1024 4 6 0.11 2.79
1:09 pm 13:09 Cloudy with Rain 58 14.4 56 13.3 93 93 E 8 13 30.25 1024 2 3 0.08 2.03
1:22 pm 13:22 Cloudy with Heavy Rain 58 14.4 56 13.3 93 93 E 5 7 30.25 1024 2 2 0.18 4.57
1:53 pm 13:53 Cloudy with Heavy Rain 58 14.4 57 13.9 97 97 E 7 11 30.25 1024 1 2 0.53 13.46
2:11 pm 14:11 Cloudy with Heavy Rain 58 14.4 57 13.9 97 97 ESE 5 7 30.25 1024 1 1 0.17 4.32
2:18 pm 14:18 Cloudy with Rain 58 14.4 57 13.9 97 97 ESE 6 9 30.25 1024 2 2 0.20 5.08
2:24 pm 14:24 Cloudy with Rain 58 14.4 57 13.9 97 97 ESE 6 9 30.24 1024 2 3 0.21 5.33
2:41 pm 14:41 Cloudy with Light Rain 58 14.4 57 13.9 97 97 ESE 8 13 30.24 1024 6 10 0.24 6.10
2:53 pm 14:53 Cloudy with Heavy Rain 58 14.4 57 13.9 97 97 E 9 15 30.24 1024 2 3 0.34 8.64
3:04 pm 15:04 Cloudy with Rain 58 14.4 57 13.9 97 97 E 9 15 30.24 1024 3 5 0.03 0.76
3:53 pm 15:53 Cloudy 60 15.6 57 13.9 90 90 ESE 5 7 30.24 1024 10 16 0.03 0.76
4:38 pm 16:38 Mostly Cloudy 62 16.7 58 14.4 86 86 E 6 9 30.23 1024 10 16 N/A
4:53 pm 16:53 Mostly Cloudy 62 16.7 58 14.4 86 86 E 8 13 30.23 1024 10 16 N/A
5:01 pm 17:01 Mostly Cloudy 62 16.7 58 14.4 86 86 E 8 13 30.23 1024 10 16 N/A
5:53 pm 17:53 Mostly Sunny 64 17.8 58 14.4 81 81 E 6 9 30.23 1024 10 16 N/A
6:53 pm 18:53 Sunny 64 17.8 58 14.4 81 81 E 10 17 30.23 1024 10 16 N/A
7:53 pm 19:53 Sunny 63 17.2 58 14.4 84 84 E 8 13 30.22 1023 10 16 N/A
8:53 pm 20:53 Clear 61 16.1 58 14.4 90 90 E 3 6 30.23 1024 10 16 N/A
9:53 pm 21:53 Mostly Clear 59 15 57 13.9 93 93 E 5 7 30.24 1024 10 16 N/A
10:53 pm 22:53 Clear 57 13.9 56 13.3 96 96 N N/A 30.25 1024 10 16 N/A
11:53 pm 23:53 Clear 56 13.3 55 12.8 97 97 E 3 6 30.25 1024 10 16 N/A

Powered by AerisWeather